SCP
0 0 0 0 0 0 1 1 1 1 1 1 1 1 1 1 1 1 1 1 1 1 1 1 1 1 1 1 1 1 1 1 1 1 1 1 1 1 0 0 0 0 0
0 0 0 0 0 0 1 1 1 1 1 1 1 1 1 1 1 1 1 1 1 1 1 1 1 1 1 1 1 1 1 1 1 1 1 1 1 1 1 0 0 0 0
0 0 0 0 0 0 0 1 1 1 1 1 1 1 1 1 1 1 1 1 1 1 1 1 1 1 1 1 1 1 1 1 1 1 1 1 1 1 1 1 1 0 0
0 0 0 0 0 0 0 0 0 1 1 1 1 1 1 1 1 1 1 1 1 1 1 1 1 1 1 1 1 1 1 1 1 1 1 1 1 1 1 1 1 1 1
0 0 0 0 0 0 0 0 0 0 0 0 1 1 1 1 1 1 1 1 1 1 1 1 1 1 1 1 1 1 1 1 1 1 1 1 1 1 1 1 1 1 1
0 0 0 0 0 0 0 0 0 0 0 0 0 0 0 0 0 0 1 1 1 1 1 1 1 1 1 1 1 1 1 1 1 1 1 1 1 1 1 1 1 1 1
0 0 0 0 0 0 0 0 0 0 0 0 0 0 0 0 0 0 0 0 0 0 0 1 1 1 1 1 1 1 1 1 1 1 1 1 1 1 1 1 1 1 1
0 0 0 0 0 0 0 0 0 0 0 0 0 0 0 0 0 0 0 0 0 0 0 0 1 1 1 1 1 1 1 1 1 1 1 1 1 1 1 1 1 1 1
0 0 0 0 0 0 0 0 0 0 0 0 0 0 0 0 0 0 0 0 0 0 0 0 1 1 1 1 1 1 1 1 1 1 1 2 2 1 1 1 1 1 1
0 0 0 0 0 0 0 0 0 0 0 0 0 0 0 0 0 0 0 0 0 0 0 0 0 1 1 1 1 1 1 1 1 1 1 2 2 2 2 1 1 1 1
0 0 0 0 0 0 0 0 0 0 0 0 0 0 0 0 0 0 0 0 0 0 0 0 0 0 0 0 0 0 1 1 1 1 1 1 2 2 2 2 1 1 1
0 0 0 0 0 0 0 0 0 0 0 0 0 0 0 0 0 0 0 0 0 0 0 0 0 0 0 0 0 0 0 1 1 1 1 1 1 2 2 2 2 1 1
0 0 0 0 0 0 0 0 0 0 0 0 0 0 0 0 0 0 0 0 0 0 0 0 0 0 0 0 0 0 0 0 0 0 1 1 1 1 2 2 2 2 1
0 0 0 0 0 0 0 0 0 0 0 0 0 0 0 0 0 0 0 0 0 0 0 0 0 0 0 0 0 0 0 0 0 0 0 0 1 1 1 1 2 2 1
0 0 0 0 0 0 0 0 0 0 0 0 0 0 0 0 0 0 0 0 0 0 0 0 0 0 0 0 0 0 0 0 0 0 0 0 0 0 1 1 1 1 1
0 0 0 0 0 0 0 0 0 0 0 0 0 0 0 0 0 0 0 0 0 0 0 0 0 0 0 0 0 0 0 0 0 0 0 0 0 0 0 0 1 1 1
0 0 0 0 0 0 0 0 0 0 0 0 0 0 0 0 0 0 0 0 0 0 0 0 0 0 0 0 0 0 0 0 0 0 0 0 0 0 0 0 0 0 1
0 0 0 0 0 0 0 0 0 0 0 0 0 0 0 0 0 0 0 0 0 0 0 0 0 0 0 0 0 0 0 0 0 0 0 0 0 0 0 0 0 0 0
0 0 0 0 0 0 0 0 0 0 0 0 0 0 0 0 0 0 0 0 0 0 0 0 0 0 0 0 0 0 0 0 0 0 0 0 0 0 0 0 0 0 0
0 0 0 0 0 0 0 0 0 0 0 0 0 0 0 0 0 0 0 0 0 0 0 0 0 0 0 0 0 0 0 0 0 0 0 0 0 0 0 0 0 0 0
0 0 0 0 0 0 0 0 0 0 0 0 0 0 0 0 0 0 0 0 0 0 0 0 0 0 0 0 0 0 0 0 0 0 0 0 0 0 0 0 0 0 0
0 0 0 0 0 0 0 0 0 0 0 0 0 0 0 0 0 0 0 0 0 0 0 0 0 0 0 0 0 0 0 0 0 0 0 0 0 0 0 0 0 0 0
0 0 0 0 0 0 0 0 0 0 0 0 0 0 0 0 0 0 0 0 0 0 0 0 0 0 0 0 0 0 0 0 0 0 0 0 0 0 0 0 0 0 0
0 0 0 0 0 0 0 0 0 0 0 0 0 0 0 0 0 0 0 0 0 0 0 0 0 0 0 0 0 0 0 0 0 0 0 0 0 0 0 0 0 0 0
0 0 0 0 0 0 0 0 0 0 0 0 0 0 0 0 0 0 0 0 0 0 0 0 0 0 0 0 0 0 0 0 0 0 0 0 0 0 0 0 0 0 0
0 0 0 0 0 0 0 0 0 0 0 0 0 0 0 0 0 0 0 0 0 0 0 0 0 0 0 0 0 0 0 0 0 0 0 0 0 0 0 0 0 0 0
Wind_Speed
3 3 2 2 1 1 0 0 0 0 1 1 1 2 2 3 3 3 3 8 12 15 16 17 17 17 17 17 17 16 16 16 15 14 14 14 14 14 14 13 12 11 11
3 3 3 3 2 1 1 0 1 1 1 1 2 2 2 2 3 3 3 6 11 14 16 16 17 18 18 18 18 18 17 17 16 15 14 14 14 15 15 14 13 12 12
4 3 3 3 3 3 2 2 3 3 3 2 2 3 2 2 3 3 4 3 5 11 15 17 17 18 18 19 19 19 18 17 16 16 15 15 15 15 15 14 14 13 13
5 4 3 3 3 3 3 3 3 3 3 3 3 3 2 3 4 4 3 4 4 5 9 16 17 17 18 19 20 20 19 18 17 17 17 16 16 16 15 15 15 14 14
5 4 3 3 4 4 4 3 3 2 2 3 3 3 2 3 4 4 4 4 5 5 5 9 15 16 18 19 19 19 19 19 18 19 19 19 18 17 17 16 16 15 15
4 4 3 4 4 4 4 3 3 3 2 3 3 4 3 3 3 3 4 3 3 5 5 6 6 10 17 17 17 18 19 20 19 20 20 20 20 19 18 17 17 16 16
4 4 3 4 4 4 3 4 3 4 3 3 3 4 4 3 3 2 2 1 2 3 3 4 4 4 5 14 16 16 18 20 20 20 20 20 20 19 19 19 18 18 17
4 4 4 3 3 3 5 5 4 3 3 3 2 2 4 6 5 4 3 3 3 2 1 2 3 5 4 3 7 14 17 19 20 20 20 20 20 20 20 20 20 19 19
4 4 4 3 3 3 2 3 3 3 2 3 2 2 2 2 4 4 4 4 4 3 2 2 2 3 4 3 4 9 14 16 18 20 20 20 20 20 20 21 21 21 20
3 4 4 4 3 2 2 1 2 2 2 2 2 1 1 2 1 4 5 4 5 4 4 3 2 2 2 2 4 7 10 11 14 17 19 20 20 21 21 22 23 23 22
1 3 4 4 3 2 2 1 1 1 1 1 0 1 1 1 1 1 3 5 5 4 4 4 3 2 2 3 3 6 9 9 11 13 15 16 18 20 22 24 25 25 24
0 2 4 4 3 2 2 1 1 0 0 1 1 1 1 0 1 0 2 3 4 4 4 3 3 3 3 2 4 6 7 8 8 11 13 14 16 18 20 22 25 26 26
1 2 3 4 3 3 3 2 1 1 1 1 2 2 2 2 2 2 2 2 3 4 4 3 3 3 3 2 3 7 6 6 7 8 10 11 13 14 17 19 22 24 25
3 3 4 4 4 3 3 3 2 2 2 2 3 3 2 3 2 2 2 1 2 3 3 4 3 3 3 3 5 6 4 6 6 7 8 9 11 12 13 15 18 20 22
3 4 4 4 4 4 4 3 3 3 3 3 4 4 3 3 2 2 2 3 2 2 4 4 3 4 4 3 5 3 4 7 8 8 8 9 11 11 13 14 15 17 19
4 4 4 4 4 4 4 4 3 4 4 4 3 4 4 3 3 3 3 2 3 3 4 3 3 4 4 5 6 4 5 9 10 10 10 11 11 12 13 14 15 16 17
5 5 5 4 4 4 4 4 5 5 5 5 4 5 5 4 3 3 3 3 3 3 4 5 3 3 4 5 6 5 5 5 5 11 12 12 12 13 14 14 15 16 17
6 6 5 5 5 5 5 5 6 6 6 6 6 5 6 5 5 4 3 4 4 4 4 6 4 3 4 5 5 6 5 5 5 10 13 13 13 13 14 14 15 15 16
6 6 6 6 6 6 6 6 6 6 6 7 6 6 6 5 6 5 5 5 4 5 4 4 4 3 3 4 4 5 5 4 5 7 10 12 13 13 13 14 14 15 15
7 7 7 7 7 6 6 6 6 6 6 6 6 6 6 6 7 7 6 6 5 5 4 4 4 4 4 4 2 3 4 3 4 5 6 6 8 11 12 13 13 14 14
8 7 7 6 6 6 6 7 6 6 6 6 6 6 7 9 10 8 6 6 6 5 4 4 4 3 4 3 3 2 3 4 4 3 3 3 3 4 5 9 12 13 14
7 7 7 7 7 7 9 11 8 6 6 6 7 7 7 8 10 12 12 12 10 7 6 5 5 5 7 5 4 3 3 2 4 3 2 4 3 4 5 5 9 13 14
7 8 8 7 8 9 12 12 12 7 7 7 7 7 7 8 8 6 8 10 10 13 13 8 7 8 7 6 5 5 4 5 5 4 2 5 4 5 5 6 11 12 13
7 7 8 8 8 9 13 14 14 9 7 8 8 8 8 8 9 8 7 7 8 8 9 8 8 9 9 8 7 7 6 5 5 4 3 4 4 5 5 5 9 12 12
7 7 6 8 8 9 13 14 13 6 7 9 9 9 9 9 13 14 8 8 8 8 10 13 13 12 13 13 9 4 4 4 5 4 3 4 4 4 4 5 6 9 11
8 7 7 8 9 9 12 15 13 5 7 7 7 8 12 12 13 13 8 7 8 9 7 6 7 9 9 10 12 9 7 6 5 5 4 4 4 3 4 3 3 3 5
Wind_Direction
53 29 15 12 1 8 54 42 16 348 316 294 280 256 230 224 228 219 227 228 210 206 204 200 197 196 195 194 195 193 191 191 186 182 181 179 176 176 174 172 169 166 163
64 41 24 18 11 1 1 59 57 49 11 343 317 304 274 243 241 236 226 229 220 212 209 206 204 203 202 201 200 199 197 195 192 188 186 184 182 181 181 179 177 174 171
67 56 38 24 7 8 27 41 41 43 33 16 342 319 304 278 257 248 240 226 223 221 215 214 212 209 208 207 206 205 202 199 196 193 191 189 187 187 186 184 183 181 179
76 64 47 23 12 28 37 50 45 41 21 5 336 317 312 296 274 258 243 230 221 224 223 222 219 214 214 213 212 210 207 204 200 198 196 194 193 192 191 189 188 186 185
83 77 57 31 31 36 32 33 41 44 18 350 321 315 315 301 286 276 255 235 224 220 218 227 225 221 221 222 220 217 213 209 206 203 201 200 199 197 195 194 193 192 190
91 84 67 45 42 40 27 26 27 23 16 345 334 336 312 304 299 283 265 253 233 226 221 223 223 227 225 225 225 224 221 215 212 209 207 205 204 201 199 198 197 197 196
103 92 80 56 49 49 34 26 27 21 5 357 12 343 332 336 343 340 330 314 290 258 226 220 214 220 230 227 227 227 228 225 219 213 211 209 208 205 202 201 201 201 200
129 121 109 90 66 55 40 38 43 33 1 17 38 20 350 343 341 358 2 16 354 332 292 243 215 210 215 214 226 231 231 230 227 220 215 213 211 208 205 204 204 203 203
148 137 134 121 93 82 64 53 62 66 20 353 36 83 59 317 314 327 355 7 353 350 335 316 254 225 217 215 227 235 235 233 232 228 223 219 214 210 208 207 207 206 206
171 164 153 140 124 108 94 75 86 82 74 10 354 33 158 199 288 321 326 345 351 351 340 337 325 280 242 225 229 229 235 236 236 235 231 227 221 215 212 210 210 210 209
214 181 162 149 141 130 134 111 80 70 99 125 328 336 352 8 78 133 310 327 335 331 331 321 315 306 280 252 239 236 237 240 239 237 235 232 228 223 218 216 215 214 213
298 175 161 155 158 161 169 173 161 151 205 224 230 211 176 237 289 216 270 301 310 306 314 320 321 315 303 279 257 246 242 242 245 243 237 235 234 230 226 223 222 219 218
185 185 164 170 179 191 197 191 196 236 240 243 246 234 217 216 209 197 218 273 293 297 313 316 310 311 314 300 280 264 251 244 246 249 245 239 238 237 233 229 227 225 222
198 192 178 184 196 203 206 197 208 231 223 236 253 245 238 244 219 202 203 227 304 308 309 296 305 307 316 301 284 281 271 259 257 256 252 247 243 241 239 235 231 227 224
189 178 182 189 204 211 217 212 221 238 241 243 249 249 242 247 238 226 205 186 197 277 291 286 298 307 310 300 294 286 278 272 267 262 258 253 249 246 243 239 235 231 226
192 187 196 202 214 223 227 219 228 238 240 248 242 246 250 248 251 246 232 213 190 203 255 268 267 281 301 307 301 287 270 273 267 263 259 256 252 248 245 242 239 234 229
204 202 208 214 222 230 233 226 232 235 237 247 250 243 249 247 246 249 244 236 224 201 246 270 261 279 291 295 301 291 279 267 264 262 260 258 254 250 245 241 240 237 232
211 209 210 214 224 229 228 226 234 235 230 237 243 242 249 250 246 245 240 241 241 225 228 267 278 282 281 286 288 292 288 279 265 265 261 259 255 251 246 241 239 238 234
210 212 209 216 225 228 228 228 227 232 231 231 233 232 240 241 248 246 241 241 243 249 227 242 266 265 274 284 299 297 292 288 283 274 266 259 256 252 247 242 240 238 234
206 212 215 220 224 227 229 232 231 233 235 236 232 230 232 231 236 242 244 240 239 244 243 244 259 268 271 279 288 294 306 304 296 292 283 275 265 258 250 245 241 237 233
212 213 216 224 226 226 231 231 231 233 232 236 237 237 237 238 238 237 238 234 230 231 235 239 252 265 269 277 273 271 285 297 294 280 301 298 289 272 257 247 242 237 231
218 214 217 221 226 232 235 229 217 222 224 227 237 243 248 253 255 255 255 249 230 223 227 230 238 242 253 249 249 253 263 295 298 292 317 296 286 276 264 247 242 237 233
216 219 224 222 227 235 239 238 230 221 223 229 233 238 250 252 250 249 261 267 258 244 230 221 229 238 242 238 236 252 246 239 245 259 286 282 279 273 264 257 250 243 235
213 220 224 224 228 236 236 237 238 230 228 233 232 231 236 249 253 245 249 257 255 253 243 233 227 236 237 235 225 232 241 251 257 257 228 261 273 268 268 257 252 246 239
218 219 219 223 229 240 239 239 236 225 231 239 238 235 232 241 251 250 246 249 258 262 257 243 234 237 240 240 232 228 240 245 266 266 220 227 259 267 266 258 249 241 239
222 223 229 227 231 241 244 240 232 218 232 244 246 241 237 240 248 251 234 232 245 254 257 263 252 251 248 249 243 225 222 231 242 259 234 212 242 245 276 265 248 238 240